indice_tiempo,producto_interno_bruto_precios_mercado,remuneracion_neta_factores_del_exterior,ingreso_nacional_bruto_precios_mercado,transferencias_corrientes_netas,ingreso_nacional_bruto_disponible,consumo_nacional,ahorro_nacional_bruto,formacion_bruta_capital_fijo,variacion_existencias_discrepancia_estadistica,cuenta_capital_balanza_pagos,prestamo_endeudamiento_neto
1993-01-01,212626.89410470155,2692.673092853363,209934.2210118482,499.34065391733503,210433.56166576553,176627.51283228252,33806.048833483015,37659.2923795471,3173.048892871948,-4.784,-7021.508438936033
1993-04-01,241255.2792388469,3055.218398644254,238200.06084020267,639.2587291795189,238839.31956938218,197582.72537824023,41256.59419114195,44292.87994960654,2213.273911000124,-0.736,-5248.823669464714
1993-07-01,243494.2296494874,3083.5721097415712,240410.65753974582,388.9465761875386,240799.60411593335,201191.02612839377,39608.57798753958,47947.31442336086,689.4890977327559,-57.04,-8971.185533554035
1993-10-01,248643.51949803144,3148.7818955537555,245494.7376024777,553.2540407156077,246047.9916431933,207111.77685762156,38936.214785571734,50378.170459481196,-100.02781907127246,-1.84,-11340.08785483819
1994-01-01,235083.1147970914,3081.8575561682546,232001.25724092315,303.2,232304.45724092316,198472.25544815906,33832.2017927641,45165.96218877132,2535.297160161048,-5.2,-13863.85755616827
1994-04-01,263684.4133504737,3704.2579325063775,259980.1554179673,600.0,260580.1554179673,217173.4699631957,43406.68545477159,51438.260275922956,678.5231113549999,-0.8,-8709.297932506364
1994-07-01,260869.63111863026,3700.366281798952,257169.2648368313,306.8,257476.0648368313,216869.98569088537,40606.07914594593,53490.28256008156,-2289.8371323366882,-62.0,-10532.366281798946
1994-10-01,270122.67816222075,4300.303407574524,265822.3747546462,642.8,266465.1747546462,223305.56417302843,43159.61058161777,55229.08642700539,-649.5724378130581,-2.0,-11417.903407574562
1995-01-01,250405.94623877716,4946.906663536211,245459.03957524095,371.6,245830.63957524096,205550.0375892831,40280.60198595785,47326.34595876052,3514.762690733547,0.0,-10560.506663536213
1995-04-01,261602.91800764075,4818.326783391273,256784.59122424948,840.0,257624.59122424948,211986.06259188883,45638.528632360656,45465.86011178194,-628.2846960299794,-0.3999999999999986,801.3532166086937
1995-07-01,256868.3397346973,4568.517563552251,252299.82217114506,414.8,252714.62217114505,209151.25723245094,43563.36493869411,46133.55168812467,1661.9548141216728,-53.6,-4178.541563552235
1995-10-01,263250.33615222375,4342.226245205649,258908.1099070181,588.8,259496.9099070181,218730.39075321797,40766.51915380012,46214.56310128533,1258.9782977204159,-2.8,-6704.2222452056185
1996-01-01,251199.98867648814,5294.247042351411,245905.74163413674,338.4,246244.14163413673,205836.94305679307,40407.19857734366,42998.60764516037,6487.637974534689,-12.8,-9066.247042351402
1996-04-01,280167.13644574623,4797.484664043415,275369.6517817028,580.0,275949.6517817028,221167.63982099763,54782.01196070519,48636.214648714675,8100.081976033936,2.4,-1956.684664043422
1996-07-01,274502.346767011,4943.218775925901,269559.12799108506,287.2,269846.32799108507,222101.91103932637,47744.4169517587,51761.43258162133,2719.803146063259,-178.0,-6558.818775925891
1996-10-01,282729.5593559781,6973.277910663361,275756.28144531476,584.4,276340.6814453148,232935.25820778607,43405.42323752871,53446.18958703743,-524.6884388453655,-14.8,-9501.277910663353
1997-01-01,271260.4563091779,5963.867152824138,265296.5891563538,328.4,265624.9891563538,221169.6192168196,44455.3699395342,48838.55638418286,8002.280708175462,-26.8,-12358.667152824128
1997-04-01,299872.5387712239,6083.004946217533,293789.5338250064,566.8,294356.3338250064,238894.13001506735,55462.203809939034,56683.09576904795,7123.312987108642,0.0,-8344.204946217556
1997-07-01,298264.99150864227,6552.68598028765,291712.3055283546,349.6,292061.9055283546,242817.79712104332,49244.10840731126,59570.14638689956,3198.648000699366,-98.0,-13426.685980287672
1997-10-01,302037.5227291263,6271.133704269627,295766.3890248567,609.6,296375.98902485665,250531.29791210114,45844.69111275551,61816.80195630416,-1268.977139278999,-140.4,-14562.733704269654
1998-01-01,282764.23229856783,7464.966729158759,275299.26556940906,309.6,275608.86556940904,228962.8499042771,46646.01566513194,56546.07322238633,7863.309171904402,12.8,-17776.16672915879
1998-04-01,312129.1110330387,6996.975988886281,305132.13504415244,468.0,305600.13504415244,249442.4085926392,56157.72645151324,61412.93279933223,5120.569641067275,-127.6,-10248.175988886263
1998-07-01,305474.768316651,7432.963390366851,298041.8049262841,313.6,298355.4049262841,249742.33158863423,48613.07333764987,61583.611290583336,2115.225437433415,-170.4,-14915.363390366883
1998-10-01,295425.32256857597,7729.722324325436,287695.60024425056,534.0,288229.60024425056,246999.2544420149,41230.34580223565,58838.258894895334,-2712.9907683342644,-6.4,-14888.52232432542
1999-01-01,270746.3896189359,6919.609289176652,263826.78032975923,368.0,264194.78032975923,226963.84702127206,37230.933308487176,47344.32429856899,3705.418299094872,-48.4,-13770.409289176683
1999-04-01,288829.85593614774,7593.66750783401,281236.1884283137,364.8,281600.9884283137,239013.1176712398,42587.87075707389,51343.36937165416,-1015.0311067462353,-8.8,-7731.667507834033
1999-07-01,285087.02139066823,7602.142391090351,277484.8789995779,368.8,277853.6789995779,239917.56676738858,37936.112232189305,52337.05389369439,-1045.5992704147247,-266.8,-13088.542391090363
1999-10-01,289428.82897694776,7739.55617078008,281689.27280616766,488.0,282177.27280616766,245217.12837929017,36960.144426877494,53270.86199044036,-3358.3613927827464,-272.4,-12679.95617078012
2000-01-01,270444.298062085,8190.005017999498,262254.2930440855,363.35207069470624,262617.6451147802,227039.1442243189,35578.50089046132,43876.81176481922,4704.89900419713,-103.6,-12899.60987855503
2000-04-01,291796.00444679364,7602.475174095671,284193.529272698,410.72612560235507,284604.25539830036,238063.12587025878,46541.12952804158,45878.76994588532,6181.5715433213845,-97.6,-5421.611961165121
2000-07-01,287495.64239376097,7532.982876852956,279962.659516908,396.8171481846333,280359.47666509263,239546.2521637431,40813.22450134953,46781.05799091761,3339.0214293758618,-179.2,-9127.654918943943
2000-10-01,287079.0123558477,6865.618405537715,280213.39395030995,425.24844731987673,280638.64239762985,240228.9421696862,40409.70022794366,47543.82749517191,1017.3560385447781,-43.2,-8108.283305773029
2001-01-01,263330.588686953,7791.0230256496825,255539.56566130332,456.5001197897601,255996.0657810931,223431.08417986744,32564.98160122565,38817.558607231374,5075.813421455714,-219.2,-11109.190427461439
2001-04-01,288026.07522980636,8361.66182005233,279664.41340975405,394.4307353689917,280058.84414512303,234559.03015019352,45499.813994929515,41613.57417718327,7714.029512956331,8.8,-3836.5896952100857
2001-07-01,271367.22709885973,8356.851813758743,263010.375285101,374.6216118912997,263384.9968969923,223424.05162460447,39960.94527238785,37900.29513453222,4309.291013747701,-184.8,-2063.840875892073
2001-10-01,252062.9443215473,6397.426149775748,245665.51817177155,472.42680275534724,246137.94497452688,211392.67897387527,34745.26600065161,34063.89243356026,-1548.610338811286,-230.8,2460.7839059026383
2002-01-01,237056.71988891807,15452.925699271413,221603.79418964667,736.6426603137714,222340.43684996045,195418.43904573412,26921.997804226325,25132.854032807136,-5904.0882931417145,-284.35814190926965,7977.590206470173
2002-04-01,339008.20167956135,25628.542002148737,313379.6596774126,1600.8149794034828,314980.47465681605,241367.89930102712,73612.57535578893,36788.32036383668,6235.011107244893,-301.27625763637315,30890.520142343725
2002-07-01,334006.23084900866,24418.23823510838,309587.9926139003,1768.8553063248992,311356.8479202252,242548.25590192553,68808.59201829965,40326.07927199945,-7369.869549113864,-2136.350902525074,37988.73319793914
2002-10-01,340249.4230239817,24746.827245831293,315502.59577815037,2898.185919224052,318400.7816973744,247573.52289130742,70827.258806067,47299.12155634917,-6798.880416502201,-2758.3973048404023,33085.414971060425
2003-01-01,327361.7670599568,23830.848071679586,303530.9189882772,1443.9892405880587,304974.90822886524,240964.54247316602,64010.365755699226,44272.47434619791,-2511.7369694840745,-396.6953844549722,22646.323763440363
2003-04-01,399118.83668133535,20897.8808130829,378220.95586825244,1663.3687291820017,379884.32459743443,291957.08776134753,87927.2368360869,53643.73465294221,790.9562756182713,-4.471928902159444,33497.01783642858
2003-07-01,377887.2428274279,24216.12475902096,353671.11806840694,1407.2400659917787,355078.3581343987,286702.41240344505,68375.94573095365,58616.53949566155,-5541.635306703654,-402.7798869752482,15703.821428971005
2003-10-01,399269.59901787696,23379.208489968678,375890.3905279083,1529.6497356046523,377420.0402635129,302629.1582840079,74790.88197950501,71080.56734107566,-7631.801713786335,-25.123063463050823,11367.239415678736
2004-01-01,392817.42999690253,24144.13735852444,368673.2926383781,1444.89831054102,370118.1909489191,293909.4687399815,76208.72220893763,71865.7039017624,-1117.8586343171628,-38.09948176063586,5498.976423253024
2004-04-01,474213.08006317174,25124.002251014517,449089.0778121572,2031.0789628611353,451120.1567750184,346004.7990999615,105115.35767505685,82186.08938774187,3140.9938297939807,-35.799813406815716,19824.07427092781
2004-07-01,452079.6638408465,26992.747926685563,425086.91591416096,1421.4713787633846,426508.38729292434,336634.56149164494,89873.8258012794,89812.75783574255,-6263.200436928513,-428.57169647063495,6752.8400989359925
2004-10-01,471463.52866644267,28086.872137247254,443376.65652919543,2134.251530898279,445510.9080600937,347509.2068429955,98001.70121709822,99336.94036435112,-3814.0283094685,-4.710952164682005,2483.5001143802842
2005-01-01,456763.7385714037,26804.98351708144,429958.7550543223,1715.6009316917716,431674.35598601407,341505.52786390716,90168.8281221069,88857.00688729814,424.1473858226673,-542.3693539351145,1430.0432029212163
2005-04-01,552411.8296739411,13880.899488115161,538530.9301858259,1752.1102572042353,540283.0404430302,404292.3704256575,135990.6700173727,112162.04222832216,4104.841930938885,-37.90436671701736,19761.69022482868
2005-07-01,544228.1668656137,16395.77549146108,527832.3913741526,1623.207783058714,529455.5991572114,398271.8639183947,131183.73523881665,118354.78092014146,-9974.989622251393,-429.28271186616826,23233.226652792746
2005-10-01,574351.1540746599,15032.444468435386,559318.7096062246,2033.4068796823096,561352.1164859069,414470.0411455443,146882.07534036256,137155.91250671423,-6963.886995588517,-45.034872565294336,16735.084701802138
2006-01-01,567994.3157069552,15996.91320954942,551997.4024974058,1975.023812278511,553972.4263096843,419421.80484065914,134550.62146902515,122263.32415944524,-1293.8673382161069,-133.2030931923129,13714.36774098833
2006-04-01,678278.4752845392,14798.878677411965,663479.5966071272,1893.9658272279485,665373.5624343551,482183.18870305707,183190.37373129808,150852.93749964738,1284.1753756454273,-493.6898900066137,31546.95074601189
2006-07-01,668197.2291645939,16444.606381226346,651752.6227833675,1938.7548754439263,653691.3776588114,473402.7325778806,180288.6450809308,165464.1452414273,-3767.217892989109,-563.1527398575735,19154.870472350176
2006-10-01,703285.9208384989,16129.714043812384,687156.2067946865,1805.511459962632,688961.7182546491,495201.79394347157,193759.9243111775,172770.28566954157,-4718.026516285579,-48.926319778410644,25756.591477699934
2007-01-01,681119.8544737429,16463.386259846808,664656.468213896,1434.481142419401,666090.9493563154,507889.6954928271,158201.25386348832,156033.5777169063,-6843.719316677074,-141.5437027390567,9152.939165998161
2007-04-01,835125.2703123351,16123.242353958263,819002.0279583768,1291.7405701115017,820293.7685284883,592168.2587974372,228125.50973105116,186946.3345498442,14630.562901438214,-29.194843574293238,26577.807123343035
2007-07-01,827463.2647056922,14626.079670426845,812837.1850352653,1331.10728343736,814168.2923187027,595168.9559276435,218999.33639105922,212071.67776165053,-1079.2539853440248,-1211.3663092801753,9218.27892403289
2007-10-01,906114.9235687553,18322.801501519803,887792.1220672354,942.6704503428087,888734.7925175782,628332.5651614174,260402.22735616087,231436.5364434215,-6330.4791153447,-9.99989447138536,35306.16992255546
2008-01-01,887643.0107787097,22502.80680459266,865140.2039741171,601.6616194173665,865741.8655935344,639137.5564717175,226604.30912181688,213774.11850457676,-3930.784763268137,-211.46803261297825,16972.443413121237
2008-04-01,1107942.8403520286,22487.35283545101,1085455.4875165776,548.801348516153,1086004.2888650938,768786.7815706681,317217.50729442574,240131.64520800853,71091.49784539873,-60.7834339947155,6055.1476750132
2008-07-01,1057550.793494556,22493.97203059421,1035056.8214639619,291.21870577110764,1035348.040169733,762156.1931070815,273191.84706265153,255835.3928324222,-21683.94350473536,-930.7333244060499,39971.13105937075
2008-10-01,1077896.38918338,23166.80156514948,1054729.5876182304,-529.3899838125144,1054200.1976344178,765275.2409285301,288924.9567058877,252201.85154055743,30245.981149600906,-13.238099795869921,6490.36211552522
2009-01-01,992962.248598719,32986.037896137124,959976.2107025819,566.7906033073422,960543.0013058892,747571.0250169088,212971.97628898046,207355.24402100046,-4048.9539694672276,-266.5160683959315,9932.202305843157
2009-04-01,1195372.4388149024,30972.5239133907,1164399.9149015117,-178.16053784663399,1164221.7543636651,864762.8615835465,299458.8927801186,238400.00638283778,-1908.8440518635907,-11.875880065590309,62979.60632921003
2009-07-01,1168794.9074595447,37564.67212086899,1131230.2353386758,41026.59491235079,1172256.8302510267,865632.62919821,306624.2010528167,249656.0201051361,1566.5549919312762,-761.0646718918921,56162.69062764123
2009-10-01,1224703.750592391,39374.60518255908,1185329.145409832,175.39447136775615,1185504.5398811998,887539.4253338324,297965.11454736744,263136.8028890017,17096.418739037646,-7.588761549824148,17739.481680877947
2010-01-01,1217380.7939488252,39520.108637376645,1177860.6853114485,-433.8361941710484,1177426.8491172774,899386.2299281263,278040.6191891511,255429.36996296232,37787.50843979427,-229.23752935146643,-14947.021684254021
2010-04-01,1508285.66501389,39083.48052210855,1469202.1844917815,-456.6127912702705,1468745.5717005113,1067555.1294415838,401190.4422589275,309885.34113757184,50198.00571374141,-62.116580251974376,41169.21198786623
2010-07-01,1465856.6693023625,39021.69905722283,1426834.9702451397,-1266.7038926070936,1425568.2663525327,1070161.390517334,355406.8758351987,342733.4011419634,-1427.8494780297042,-705.8927735278733,14807.216944792879
2010-10-01,1579098.38612358,40704.197309991185,1538394.1888135888,-1721.007566636555,1536673.1812469522,1131186.5343691926,405486.6468777596,361618.31651930744,55315.854553707875,-15.789060244372065,-11431.73513501134
2011-01-01,1567580.176902906,39548.16664886624,1528032.01025404,-2377.2172298420955,1525654.7930241977,1150270.4204270283,375384.37259716936,337661.1786226433,62040.507127173536,-261.29664395836426,-24056.016508689096
2011-04-01,1976227.335648624,43960.179293968664,1932267.1563546553,-3428.0372077988563,1928839.1191468565,1367259.3865137282,561579.7326331283,416370.4685218627,123036.81999121065,-81.50165100848284,22253.94577106343
2011-07-01,1865390.9012928777,46029.16975808331,1819361.7315347944,-1960.6609176816892,1817401.0706171128,1337436.4475211059,479964.6230960069,454038.16607199557,27994.662222629588,-827.590163031466,-1240.615035586768
2011-10-01,1958890.1251044874,49218.143037756054,1909671.9820667314,-1999.833561577605,1907672.1485051538,1417167.1194549748,490505.02905017906,455275.5637766691,50662.90764567541,-34.2023889034774,-15399.239983261969
2012-01-01,1874935.0215204076,50788.08637722384,1824146.935143184,-1262.925771685584,1822884.0093714984,1428245.507391833,394638.50197966537,408049.05620997853,8518.86963711516,-139.36078416737814,-21790.06308326095
2012-04-01,2273161.6928724637,40948.25175095833,2232213.4411215056,-1993.9697060360838,2230219.4714154694,1665498.9280950648,564720.5433204046,445770.98881943757,94081.54018246842,-35.666026888175935,24903.680345386783
2012-07-01,2182909.396913151,39510.35223489765,2143399.044678253,-1208.7553127698004,2142190.2893654834,1588844.8069961746,553345.4823693088,510784.15529045905,21208.654887750454,-461.00854465358145,21813.680735752903
2012-10-01,2325977.3923481153,52733.857271538516,2273243.5350765768,-2012.818301803467,2271230.7167747733,1697528.3279851575,573702.3887896158,520852.2322465767,67596.9657018357,0.0,-14746.809158796561
2013-01-01,2279489.347686408,54691.73897280375,2224797.6087136045,-1506.635413289412,2223290.973300315,1775126.2072076881,448164.76609262684,473074.26860408013,37539.60854648828,-58.19075299207529,-62390.9203049495
2013-04-01,2907278.370402645,54903.00793469431,2852375.3624679507,-1458.3716318354852,2850916.990836115,2173432.111120284,677484.879715831,591927.7518122585,84288.05023940525,-50.164442234547664,1319.2421064018185
